Starlink 35580

operational
NORAD ID: 66155 Int'l Des: 2025-240 Owner: SPXS Country: US Constellation: starlink
LEOCIRCULAR

Starlink 35580について

説明を読み込み中...

リアルタイム位置

3D地球を読み込み中...

次回通過

高度履歴

Altitude vs Time

uPlot chart will show altitude changes over time

軌道要素

1 66155C 25240L 25298.74215278 .00653130 00000+0 10624-2 0 2982
2 66155 53.1579 338.8176 0009103 269.3524 321.4704 16.01891621 12
Epoch: Oct 25, 2025 • Age: 153 hours

現在のステータス

高度 253.2 km
速度 7.76 km/s
衛星直下点 -41.15°S, 101.16°E
打ち上げ日 Oct 25, 2025
運用期間 5 days
タイプ internet

技術仕様

分類 Payload
質量 575.00 kg
乾燥質量 530.00 kg
総質量 575.00 kg
長さ 0.30 m
直径 4.10 m
スパン 29.00 m
形状 Box + pan
製造者 SPXS
バスタイプ Starlink V2MO
フェーズステータス In Orbit
所有者/国 SPXS/US

大規模コンステレーション

Loading constellations...